Weather History for Hinckley, MN

Change the Weather History Date:

Friday, March 22, 2013

  Actual Average (KJMR) Record (KJMR)
Temperature  
Mean Temperature 17 °F -  
Max Temperature 33 °F 43 °F 71 °F (1945)
Min Temperature 1 °F 20 °F -9 °F (1940)
Degree Days  
Heating Degree Days 48    
Moisture  
Dew Point 7 °F    
Average Humidity 65    
Maximum Humidity 92    
Minimum Humidity 35    
Precipitation  
Precipitation 0.00 in - - ()
Sea Level Pressure  
Sea Level Pressure 30.04 in    
Wind  
Wind Speed 1 mph (WSW)    
Max Wind Speed 7 mph    
Max Gust Speed -    
Visibility 10 miles    
Events      
Averages and records for this station are not official NWS values.
T = Trace of Precipitation, MM = Missing Value Source: NWS Daily Summary

Daily Weather History Graph

Daily Weather History Graph

Search for Another Location

Airport:

Trip Planner

Search our weather history database for the weather conditions in past years. The results will help you decide how hot, cold, wet, or windy it might be!

Date:

Astronomy

Mar. 22, 2013 Rise Set
Actual Time 7:10 AM CDT 7:27 PM CDT
Civil Twilight 6:40 AM CDT 7:57 PM CDT
Nautical Twilight 6:05 AM CDT 8:32 PM CDT
Astronomical Twilight 5:29 AM CDT 9:08 PM CDT
Moon 2:42 PM CDT (3/22) 4:24 AM CDT (3/22)
Length of Visible Light 13h 16m
Length of Day
12h 17m
Waxing Gibbous, 77% of the Moon is Illuminated
Mar 22
Waxing Gibbous
Mar 27
Full
Apr 2
Last Quarter
Apr 10
New
Apr 18
First Quarter

Hourly Weather History & Observations

Time (CDT) Temp. Windchill Dew Point Humidity Pressure Visibility Wind Dir Wind Speed Gust Speed Precip Events Conditions
12:15 AM 6.8 °F - 3.2 °F 85% 30.05 in 10.0 mi Calm Calm - N/A   Clear
12:35 AM 6.8 °F - 3.2 °F 85% 30.05 in 10.0 mi Calm Calm - N/A   Clear
12:55 AM 3.2 °F - 1.4 °F 92% 30.05 in 10.0 mi Calm Calm - N/A   Clear
1:15 AM 3.2 °F - 1.4 °F 92% 30.05 in 10.0 mi Calm Calm - N/A   Clear
1:35 AM 3.2 °F - -0.4 °F 85% 30.06 in 10.0 mi Calm Calm - N/A   Clear
1:55 AM 3.2 °F - -0.4 °F 85% 30.06 in 10.0 mi Calm Calm - N/A   Clear
2:15 AM 3.2 °F - -0.4 °F 85% 30.06 in 10.0 mi Calm Calm - N/A   Clear
2:35 AM 3.2 °F - -0.4 °F 85% 30.06 in 10.0 mi Calm Calm - N/A   Clear
2:55 AM 3.2 °F - -0.4 °F 85% 30.06 in 10.0 mi Calm Calm - N/A   Clear
3:15 AM 5.0 °F - 1.4 °F 85% 30.06 in 10.0 mi Calm Calm - N/A   Clear
3:35 AM 3.2 °F - -0.4 °F 85% 30.05 in 10.0 mi Calm Calm - N/A   Clear
3:55 AM 3.2 °F - -0.4 °F 85% 30.05 in 10.0 mi Calm Calm - N/A   Clear
4:15 AM 3.2 °F - -0.4 °F 85% 30.05 in 10.0 mi Calm Calm - N/A   Clear
4:35 AM 3.2 °F - -0.4 °F 85% 30.05 in 10.0 mi Calm Calm - N/A   Clear
4:55 AM 5.0 °F - 1.4 °F 85% 30.05 in 10.0 mi Calm Calm - N/A   Clear
5:15 AM 3.2 °F - -0.4 °F 85% 30.04 in 10.0 mi Calm Calm - N/A   Clear
5:35 AM 5.0 °F - 1.4 °F 85% 30.04 in 10.0 mi Calm Calm - N/A   Clear
5:55 AM 8.6 °F 2.0 °F 3.2 °F 79% 30.04 in 10.0 mi North 3.5 mph - N/A   Clear
6:15 AM 6.8 °F - 1.4 °F 79% 30.05 in 10.0 mi Calm Calm - N/A   Clear
6:35 AM 5.0 °F - 1.4 °F 85% 30.05 in 10.0 mi Calm Calm - N/A   Clear
6:55 AM 3.2 °F - 1.4 °F 92% 30.05 in 10.0 mi Calm Calm - N/A   Clear
7:15 AM 3.2 °F - -0.4 °F 85% 30.05 in 10.0 mi Calm Calm - N/A   Clear
7:35 AM 1.4 °F - -0.4 °F 92% 30.06 in 10.0 mi Calm Calm - N/A   Clear
7:55 AM 1.4 °F - -0.4 °F 92% 30.06 in 10.0 mi Calm Calm - N/A   Clear
8:15 AM 1.4 °F - -0.4 °F 92% 30.06 in 10.0 mi Calm Calm - N/A   Clear
8:35 AM 3.2 °F - 1.4 °F 92% 30.06 in 10.0 mi Calm Calm - N/A   Clear
8:55 AM 6.8 °F - 3.2 °F 85% 30.06 in 10.0 mi Calm Calm - N/A   Clear
9:15 AM 14.0 °F 6.5 °F 8.6 °F 79% 30.06 in 10.0 mi North 4.6 mph - N/A   Clear
9:35 AM 17.6 °F - 8.6 °F 68% 30.06 in 10.0 mi Calm Calm - N/A   Clear
9:55 AM 19.4 °F 14.3 °F 6.8 °F 58% 30.06 in 10.0 mi East 3.5 mph - N/A   Clear
10:15 AM 21.2 °F - 8.6 °F 58% 30.06 in 10.0 mi Calm Calm - N/A   Clear
10:35 AM 21.2 °F - 8.6 °F 58% 30.06 in 10.0 mi Calm Calm - N/A   Clear
10:55 AM 23.0 °F - 8.6 °F 54% 30.06 in 10.0 mi Calm Calm - N/A   Clear
11:15 AM 24.8 °F - 8.6 °F 50% 30.05 in 10.0 mi Calm Calm - N/A   Clear
11:35 AM 26.6 °F - 10.4 °F 51% 30.04 in 10.0 mi Calm Calm - N/A   Clear
11:55 AM 28.4 °F - 10.4 °F 47% 30.04 in 10.0 mi Calm Calm - N/A   Clear
12:15 PM 28.4 °F - 10.4 °F 47% 30.04 in 10.0 mi Calm Calm - N/A   Clear
12:35 PM 30.2 °F - 10.4 °F 44% 30.04 in 10.0 mi Calm Calm - N/A   Clear
1:15 PM 32.0 °F - 10.4 °F 41% 30.03 in 10.0 mi Calm Calm - N/A   Clear
1:35 PM 32.0 °F - 10.4 °F 41% 30.02 in 10.0 mi Calm Calm - N/A   Clear
1:55 PM 32.0 °F - 12.2 °F 44% 30.02 in 10.0 mi Calm Calm - N/A   Clear
2:15 PM 32.0 °F - 10.4 °F 41% 30.01 in 10.0 mi Calm Calm - N/A   Clear
2:35 PM 32.0 °F - 10.4 °F 41% 30.01 in 10.0 mi Calm Calm - N/A   Clear
2:55 PM 32.0 °F - 10.4 °F 41% 30.01 in 10.0 mi Calm Calm - N/A   Clear
3:15 PM 33.8 °F - 8.6 °F 35% 30.01 in 10.0 mi Calm Calm - N/A   Clear
3:35 PM 33.8 °F - 10.4 °F 38% 30.01 in 10.0 mi Calm Calm - N/A   Clear
3:55 PM 33.8 °F - 10.4 °F 38% 30.00 in 10.0 mi Calm Calm - N/A   Clear
4:15 PM 33.8 °F - 8.6 °F 35% 30.01 in 10.0 mi Calm Calm - N/A   Clear
4:35 PM 33.8 °F - 8.6 °F 35% 30.01 in 10.0 mi Calm Calm - N/A   Clear
4:55 PM 33.8 °F - 10.4 °F 38% 30.01 in 10.0 mi Calm Calm - N/A   Clear
5:15 PM 33.8 °F 28.6 °F 12.2 °F 41% 30.01 in 10.0 mi SSW 5.8 mph - N/A   Clear
5:35 PM 33.8 °F 29.6 °F 10.4 °F 38% 30.01 in 10.0 mi SW 4.6 mph - N/A   Clear
5:55 PM 32.0 °F 28.7 °F 10.4 °F 41% 30.02 in 10.0 mi SSW 3.5 mph - N/A   Clear
6:15 PM 32.0 °F 28.7 °F 10.4 °F 41% 30.02 in 10.0 mi SW 3.5 mph - N/A   Clear
6:35 PM 32.0 °F 28.7 °F 10.4 °F 41% 30.02 in 10.0 mi SSW 3.5 mph - N/A   Clear
6:55 PM 32.0 °F 28.7 °F 8.6 °F 38% 30.03 in 10.0 mi SW 3.5 mph - N/A   Clear
7:15 PM 30.2 °F 23.4 °F 12.2 °F 47% 30.03 in 10.0 mi WSW 6.9 mph - N/A   Clear
7:35 PM 30.2 °F 25.4 °F 12.2 °F 47% 30.03 in 10.0 mi West 4.6 mph - N/A   Clear
7:55 PM 28.4 °F 22.2 °F 12.2 °F 51% 30.04 in 10.0 mi WSW 5.8 mph - N/A   Clear
8:15 PM 26.6 °F 21.2 °F 12.2 °F 55% 30.04 in 10.0 mi WSW 4.6 mph - N/A   Clear
8:35 PM 24.8 °F - 12.2 °F 59% 30.05 in 10.0 mi Calm Calm - N/A   Clear
8:55 PM 23.0 °F - 12.2 °F 63% 30.05 in 10.0 mi Calm Calm - N/A   Clear
9:15 PM 21.2 °F 16.4 °F 12.2 °F 68% 30.05 in 10.0 mi NNE 3.5 mph - N/A   Clear
9:35 PM 23.0 °F - 12.2 °F 63% 30.05 in 10.0 mi Calm Calm - N/A   Clear
9:55 PM 17.6 °F - 10.4 °F 73% 30.06 in 10.0 mi Calm Calm - N/A   Clear
10:15 PM 19.4 °F - 12.2 °F 74% 30.06 in 10.0 mi Calm Calm - N/A   Clear
10:35 PM 21.2 °F - 10.4 °F 63% 30.07 in 10.0 mi Calm Calm - N/A   Clear
11:15 PM 23.0 °F - 12.2 °F 63% 30.07 in 10.0 mi Calm Calm - N/A   Clear
11:35 PM 17.6 °F - 10.4 °F 73% 30.08 in 10.0 mi Calm Calm - N/A   Clear